EW2142 Weather Reports


Display with metric or nautical units.
time (UTC)temp
F
wind
direction
speed
MPH
gust
MPH
rain 1hr
in
rain 24hr
in
rain mn
in
humidity
%
barometer
mb
20260502235503 54 0 0.0 0.0 0.00 0.00 0.00 60 1008.8
20260502235003 54 0 0.0 0.0 0.00 0.00 0.00 61 1008.8
20260502234503 54 0 0.0 0.0 0.00 0.00 0.00 62 1008.9
20260502234024 54 0 0.0 0.0 0.00 0.00 0.00 62 1009.0
20260502233503 54 0 0.0 0.0 0.00 0.00 0.00 62 1009.1
20260502233024 54 0 0.0 0.0 0.00 0.00 0.00 63 1009.0
20260502232524 54 0 0.0 0.0 0.00 0.00 0.00 64 1009.0
20260502232024 54 0 0.0 0.0 0.00 0.00 0.00 64 1009.1
20260502231503 54 0 0.0 0.0 0.00 0.00 0.00 64 1009.2
20260502231002 54 0 0.0 0.0 0.00 0.00 0.00 64 1009.2
20260502230502 54 0 0.0 0.0 0.00 0.00 0.00 64 1009.1
20260502230003 54 0 0.0 0.0 0.00 0.00 0.00 64 1009.1
20260502225503 54 0 0.0 0.0 0.00 0.00 0.00 64 1009.2
20260502225003 54 0 0.0 0.0 0.00 0.00 0.00 64 1009.2
20260502224524 54 0 0.0 0.0 0.00 0.00 0.00 64 1009.2
20260502224024 54 0 0.0 0.0 0.00 0.00 0.00 64 1009.2
20260502223503 54 0 0.0 0.0 0.00 0.00 0.00 64 1009.2
20260502223003 54 0 0.0 0.0 0.00 0.00 0.00 64 1009.2
20260502222524 54 0 0.0 0.0 0.00 0.00 0.00 64 1009.2
20260502222002 54 0 0.0 0.0 0.00 0.00 0.00 64 1009.2
20260502221503 54 0 0.0 0.0 0.00 0.00 0.00 64 1009.2
20260502221003 54 0 0.0 0.0 0.00 0.00 0.00 64 1009.2
20260502220503 54 0 0.0 0.0 0.00 0.00 0.00 64 1009.2
20260502220005 54 0 0.0 0.0 0.00 0.00 0.00 64 1009.3
20260502215502 54 0 0.0 0.0 0.00 0.00 0.00 64 1009.4
20260502215003 54 0 0.0 0.0 0.00 0.00 0.00 64 1009.4
20260502214503 54 0 0.0 0.0 0.00 0.00 0.00 64 1009.5
20260502214003 54 0 0.0 0.0 0.00 0.00 0.00 65 1009.6
20260502213503 54 0 0.0 0.0 0.00 0.00 0.00 65 1009.7
20260502213024 54 0 0.0 0.0 0.00 0.00 0.00 66 1009.7
20260502212503 54 0 0.0 0.0 0.00 0.00 0.00 66 1009.7
20260502212003 54 0 0.0 0.0 0.00 0.00 0.00 66 1009.9
20260502211503 54 0 0.0 0.0 0.00 0.00 0.00 66 1009.8
20260502211003 54 0 0.0 0.0 0.00 0.00 0.00 67 1009.9
20260502210503 54 0 0.0 0.0 0.00 0.00 0.00 67 1009.8
20260502210003 54 0 0.0 0.0 0.00 0.00 0.00 67 1009.9
20260502205503 54 0 0.0 0.0 0.00 0.00 0.00 68 1009.9
20260502205003 54 0 0.0 0.0 0.00 0.00 0.00 68 1009.9
20260502204503 55 0 0.0 0.0 0.00 0.00 0.00 68 1009.9
20260502204003 55 0 0.0 0.0 0.00 0.00 0.00 68 1010.0
20260502203503 55 0 0.0 0.0 0.00 0.00 0.00 68 1010.0
20260502203003 55 0 0.0 0.0 0.00 0.00 0.00 68 1009.9
20260502202503 55 0 0.0 0.0 0.00 0.00 0.00 68 1010.0
20260502202002 55 0 0.0 0.0 0.00 0.00 0.00 68 1010.2
20260502201503 55 0 0.0 0.0 0.00 0.00 0.00 68 1010.2
20260502201023 55 0 0.0 0.0 0.00 0.00 0.00 68 1010.2
20260502200524 55 0 0.0 0.0 0.00 0.00 0.00 68 1010.3
20260502200024 55 0 0.0 0.0 0.00 0.00 0.00 68 1010.4
20260502195503 56 0 0.0 0.0 0.00 0.00 0.00 68 1010.3
20260502195003 56 316 0.0 1.0 0.00 0.00 0.00 69 1010.3
20260502194524 56 302 0.0 1.0 0.00 0.00 0.00 69 1010.4
20260502194024 56 319 0.0 3.0 0.00 0.00 0.00 69 1010.4
20260502193503 56 314 0.0 3.0 0.00 0.00 0.00 68 1010.4
20260502193003 56 296 0.0 2.0 0.00 0.00 0.00 68 1010.4
20260502192524 56 321 0.0 2.0 0.00 0.00 0.00 68 1010.3
20260502192023 56 305 0.0 3.0 0.00 0.00 0.00 68 1010.3
20260502191503 57 301 0.0 3.0 0.00 0.00 0.00 68 1010.3
20260502191003 57 141 0.0 2.0 0.00 0.00 0.00 68 1010.3
20260502190503 58 319 0.0 3.0 0.00 0.00 0.00 68 1010.3
20260502190003 58 321 0.0 3.0 0.00 0.00 0.00 68 1010.2
20260502185503 58 281 0.0 1.0 0.00 0.00 0.00 68 1010.2
20260502185002 59 215 0.0 1.0 0.00 0.00 0.00 68 1010.2
20260502184503 59 239 0.0 1.0 0.00 0.00 0.00 68 1010.1
20260502184003 59 274 0.0 1.0 0.00 0.00 0.00 68 1010.1
20260502183503 60 311 0.0 1.0 0.00 0.00 0.00 68 1010.0
20260502183003 60 325 0.0 1.0 0.00 0.00 0.00 68 1010.1
20260502182503 60 333 0.0 1.0 0.00 0.00 0.00 67 1010.0
20260502182003 60 352 0.0 1.0 0.00 0.00 0.00 67 1010.0
20260502181502 60 1 0.0 1.0 0.00 0.00 0.00 67 1010.0
20260502181003 60 346 0.0 1.0 0.00 0.00 0.00 67 1010.1
20260502180502 61 326 0.0 1.0 0.00 0.00 0.00 67 1009.9
20260502170502 65 308 1.0 3.0 0.00 0.00 0.00 56 1010.2
20260502164003 70 263 0.0 4.0 0.00 0.00 0.00 47 1010.2
20260502163503 70 257 0.0 4.0 0.00 0.00 0.00 47 1010.1
20260502163003 70 252 0.0 3.0 0.00 0.00 0.00 47 1010.1
20260502162524 70 293 0.0 3.0 0.00 0.00 0.00 48 1010.2
20260502162024 70 265 0.0 3.0 0.00 0.00 0.00 49 1010.2
20260502161502 70 254 1.0 4.0 0.00 0.00 0.00 47 1010.2
20260502161003 70 244 1.0 6.0 0.00 0.00 0.00 47 1010.3
20260502160524 70 287 1.0 8.0 0.00 0.00 0.00 46 1010.3
20260502151502 74 250 1.0 4.0 0.00 0.00 0.00 42 1010.8
20260502151003 74 255 1.0 4.0 0.00 0.00 0.00 42 1010.8
20260502150503 73 247 1.0 4.0 0.00 0.00 0.00 44 1010.9
20260502130503 73 292 1.0 3.0 0.00 0.00 0.00 45 1012.3
20260502123503 72 241 1.0 4.0 0.00 0.00 0.00 48 1012.8
20260502123003 71 236 1.0 4.0 0.00 0.00 0.00 50 1012.8
20260502122503 71 232 1.0 4.0 0.00 0.00 0.00 48 1012.9
20260502122003 71 273 1.0 5.0 0.00 0.00 0.00 48 1013.0
20260502121503 71 269 1.0 5.0 0.00 0.00 0.00 49 1013.0
20260502121003 70 279 1.0 5.0 0.00 0.00 0.00 48 1013.1
20260502120502 70 292 1.0 5.0 0.00 0.00 0.00 50 1013.2
20260502115503 70 204 1.0 6.0 0.00 0.00 0.00 50 1013.3
20260502115002 69 214 1.0 6.0 0.00 0.00 0.00 49 1013.4
20260502114003 70 245 1.0 5.0 0.00 0.00 0.00 50 1013.4
20260502113524 70 230 1.0 6.0 0.00 0.00 0.00 50 1013.4
20260502113003 70 227 1.0 6.0 0.00 0.00 0.00 50 1013.5
20260502112503 70 248 1.0 5.0 0.00 0.00 0.00 49 1013.4
20260502112003 71 269 0.0 3.0 0.00 0.00 0.00 50 1013.4
20260502111524 70 273 0.0 4.0 0.00 0.00 0.00 51 1013.5
20260502111002 70 264 0.0 4.0 0.00 0.00 0.00 51 1013.4
20260502110503 69 275 1.0 5.0 0.00 0.00 0.00 51 1013.5
20260502110003 69 276 1.0 5.0 0.00 0.00 0.00 53 1013.5
20260502105502 69 242 0.0 3.0 0.00 0.00 0.00 52 1013.6
20260502105003 69 229 1.0 3.0 0.00 0.00 0.00 52 1013.6
20260502104503 69 249 1.0 2.0 0.00 0.00 0.00 52 1013.6
20260502104024 69 264 0.0 5.0 0.00 0.00 0.00 53 1013.7
20260502103524 69 187 0.0 5.0 0.00 0.00 0.00 53 1013.8
20260502103024 68 273 1.0 5.0 0.00 0.00 0.00 53 1013.8
20260502102524 68 277 1.0 5.0 0.00 0.00 0.00 53 1013.9
20260502102003 69 195 0.0 4.0 0.00 0.00 0.00 52 1013.9
20260502101503 68 259 0.0 2.0 0.00 0.00 0.00 53 1014.0
20260502101023 68 244 0.0 3.0 0.00 0.00 0.00 55 1014.1
20260502100503 67 248 1.0 4.0 0.00 0.00 0.00 55 1014.0
20260502091503 66 252 0.0 2.0 0.00 0.00 0.00 57 1014.6
20260502091023 66 270 0.0 2.0 0.00 0.00 0.00 57 1014.6
20260502090503 66 288 0.0 3.0 0.00 0.00 0.00 58 1014.6
20260502071503 62 250 0.0 1.0 0.00 0.00 0.00 60 1015.0
20260502071003 62 291 0.0 2.0 0.00 0.00 0.00 61 1015.0
20260502070524 61 294 0.0 2.0 0.00 0.00 0.00 62 1015.0
20260502070002 60 292 0.0 3.0 0.00 0.00 0.00 63 1015.1
20260502065503 60 299 0.0 5.0 0.00 0.00 0.00 63 1015.1
20260502065003 60 291 0.0 5.0 0.00 0.00 0.00 63 1015.2
20260502064503 59 146 0.0 2.0 0.00 0.00 0.00 64 1015.3
20260502064003 58 155 0.0 2.0 0.00 0.00 0.00 65 1015.4
20260502063524 57 322 0.0 2.0 0.00 0.00 0.00 65 1015.4
20260502063003 56 353 0.0 2.0 0.00 0.00 0.00 65 1015.3
20260502062503 56 333 0.0 3.0 0.00 0.00 0.00 65 1015.4
20260502062003 55 280 0.0 3.0 0.00 0.00 0.00 64 1015.4
20260502061503 55 195 0.0 2.0 0.00 0.00 0.00 64 1015.5
20260502061024 54 260 0.0 1.0 0.00 0.00 0.00 63 1015.5
20260502060502 54 85 0.0 2.0 0.00 0.00 0.00 62 1015.6
20260502060003 53 32 0.0 2.0 0.00 0.00 0.00 61 1015.6
20260502055503 53 309 0.0 2.0 0.00 0.00 0.00 60 1015.6
20260502055003 52 320 0.0 2.0 0.00 0.00 0.00 58 1015.7
20260502054524 52 30 0.0 1.0 0.00 0.00 0.00 55 1015.7
20260502054003 51 136 0.0 1.0 0.00 0.00 0.00 52 1015.7
20260502053503 51 164 0.0 1.0 0.00 0.00 0.00 49 1015.8
20260502053003 50 236 0.0 1.0 0.00 0.00 0.00 45 1015.9
20260502052524 50 113 0.0 1.0 0.00 0.00 0.00 39 1015.9
20260502052003 49 113 0.0 1.0 0.00 0.00 0.00 32 1016.0
20260502051503 48 0 0.0 0.0 0.00 0.00 0.00 25 1016.0
20260502051003 48 0 0.0 1.0 0.00 0.00 0.00 18 1016.1
20260502050502 48 0 0.0 1.0 0.00 0.00 0.00 11 1016.1
20260502050003 47 0 0.0 0.0 0.00 0.00 0.00 3 1016.1
20260502045503 46 0 0.0 0.0 0.00 0.00 0.00 1 1016.2
20260502045003 46 0 0.0 0.0 0.00 0.00 0.00 1 1016.2
20260502044503 46 0 0.0 0.0 0.00 0.00 0.00 1 1016.2
20260502044003 46 0 0.0 0.0 0.00 0.00 0.00 1 1016.3
20260502043503 45 0 0.0 0.0 0.00 0.00 0.00 1 1016.4
20260502043003 45 0 0.0 0.0 0.00 0.00 0.00 1 1016.5
20260502042503 45 0 0.0 0.0 0.00 0.00 0.00 1 1016.5
20260502042003 45 0 0.0 0.0 0.00 0.00 0.00 1 1016.5
20260502041503 45 0 0.0 0.0 0.00 0.00 0.00 1 1016.6
20260502041024 44 0 0.0 0.0 0.00 0.00 0.00 1 1016.7
20260502040503 44 0 0.0 0.0 0.00 0.00 0.00 1 1016.7
20260502040003 44 0 0.0 0.0 0.00 0.00 0.00 2 1016.7
20260502035502 44 0 0.0 0.0 0.00 0.00 0.00 8 1016.8
20260502035002 44 0 0.0 0.0 0.00 0.00 0.00 11 1016.8
20260502034503 44 0 0.0 0.0 0.00 0.00 0.00 15 1016.8
20260502034003 44 0 0.0 0.0 0.00 0.00 0.00 14 1016.9
20260502033503 44 0 0.0 0.0 0.00 0.00 0.00 13 1017.0
20260502033024 44 0 0.0 0.0 0.00 0.00 0.00 10 1017.1
20260502032503 44 0 0.0 0.0 0.00 0.00 0.00 6 1017.2
20260502032003 44 0 0.0 0.0 0.00 0.00 0.00 3 1017.3
20260502031524 43 0 0.0 0.0 0.00 0.00 0.00 19 1017.4
20260502031003 43 0 0.0 0.0 0.00 0.00 0.00 23 1017.5
20260502030503 43 0 0.0 0.0 0.00 0.00 0.00 24 1017.6
20260502030002 43 0 0.0 0.0 0.00 0.00 0.00 27 1017.6
20260502025503 43 0 0.0 0.0 0.00 0.00 0.00 28 1017.7
20260502025024 43 0 0.0 0.0 0.00 0.00 0.00 27 1017.8
20260502024503 43 0 0.0 0.0 0.00 0.00 0.00 30 1017.8
20260502024003 43 0 0.0 0.0 0.00 0.00 0.00 37 1017.9
20260502023503 44 0 0.0 0.0 0.00 0.00 0.00 37 1017.9
20260502023003 44 298 0.0 1.0 0.00 0.00 0.00 35 1018.0
20260502022503 44 298 0.0 1.0 0.00 0.00 0.00 40 1018.0
20260502022003 44 0 0.0 0.0 0.00 0.00 0.00 44 1018.1
20260502021503 44 0 0.0 0.0 0.00 0.00 0.00 46 1018.2
20260502021024 44 0 0.0 0.0 0.00 0.00 0.00 47 1018.2
20260502020503 44 0 0.0 0.0 0.00 0.00 0.00 46 1018.2
20260502020003 44 0 0.0 0.0 0.00 0.00 0.00 44 1018.4
20260502015503 44 0 0.0 0.0 0.00 0.00 0.00 44 1018.5
20260502015002 44 0 0.0 0.0 0.00 0.00 0.00 46 1018.5
20260502014503 44 0 0.0 0.0 0.00 0.00 0.00 45 1018.6
20260502014024 44 0 0.0 0.0 0.00 0.00 0.00 47 1018.6
20260502013503 44 0 0.0 0.0 0.00 0.00 0.00 51 1018.7
20260502013003 44 0 0.0 0.0 0.00 0.00 0.00 54 1018.8
20260502012524 44 0 0.0 0.0 0.00 0.00 0.00 54 1018.9
20260502012003 44 0 0.0 0.0 0.00 0.00 0.00 55 1019.0
20260502011503 44 0 0.0 0.0 0.00 0.00 0.00 57 1019.0
20260502011003 45 0 0.0 0.0 0.00 0.00 0.00 58 1019.1
20260502010503 45 0 0.0 0.0 0.00 0.00 0.00 60 1019.1
20260502010002 45 0 0.0 0.0 0.00 0.00 0.00 60 1019.2
20260502005524 45 0 0.0 0.0 0.00 0.00 0.00 60 1019.3
20260502005002 45 0 0.0 0.0 0.00 0.00 0.00 61 1019.4
20260502004503 45 0 0.0 0.0 0.00 0.00 0.00 62 1019.4
20260502004003 46 0 0.0 0.0 0.00 0.00 0.00 61 1019.5
20260502003503 45 0 0.0 0.0 0.00 0.00 0.00 63 1019.6
20260502003003 46 0 0.0 0.0 0.00 0.00 0.00 64 1019.6
20260502002503 46 0 0.0 0.0 0.00 0.00 0.00 64 1019.7
20260502002003 45 0 0.0 0.0 0.00 0.00 0.00 65 1019.7
20260502001524 45 0 0.0 0.0 0.00 0.00 0.00 66 1019.7
20260502001003 46 0 0.0 0.0 0.00 0.00 0.00 66 1019.8
20260502000503 46 0 0.0 0.0 0.00 0.00 0.00 66 1019.8
20260502000003 45 0 0.0 0.0 0.00 0.00 0.00 66 1019.8